FLOCK 3R-2 (43748 NORAD) Tracking and Keplerian Element Data

This shows tracking and keplerian element data for the satellite.

Feedback or suggestion? Click here.




ElementValue
Catalog43748
NameFLOCK 3R-2
Epoch Orbit7814
Epoch Day114.96920222
Epoch Year2020
RAAN189.9703
Inclination97.4253
Eccentricity0.0018945
Argument of Perigee323.7343
Mean Anonmoly36.2611
Mean Motion15.29129993
Decay Rate3.046E-05
L11 43748U 18096AF 20114.96920222 .00003046 00000-0 10992-3 0 9997
L22 43748 97.4253 189.9703 0018945 323.7343 36.2611 15.29129993 78146



Live tracking and technical data element details for FLOCK 3R-2 (NORAD 43748). FLOCK 3R-2 can be tracked NOW for your location showing map with azimuth and elevation plus other details from your city location.







IsCatalogInMostPopularTable: catalog: 43748, numindb: 471
Update: records affected: 1



GetName: 43748 FLOCK 3R-2

Hit Count: updated at: Sat, 14 Mar 2026 01:44:27 GMT